Location: ??
(35.1714°N, 128.2806°E)
Time: 04:53:25
(UTC+00:00)

Tiangong - Pass Details

Date: 26 June 2021
Orbit: 373 x 385 km, 41.5° (Epoch: 04 August)

Event Time Altitude Azimuth Distance (km) Brightness Sun altitude
Exits shadow 18:27:19 10° 306° (NW) 1,400 3.8 -18.0°
Reaches altitude 10° 18:27:21 10° 306° (NW) 1,386 3.8 -18.0°
Maximum altitude 18:30:01 25° 4° (N) 813 3.3 -17.6°
Drops below altitude 10° 18:32:41 10° 63° (ENE) 1,393 5.0 -17.2°
Sets 18:34:59 0° 77° (ENE) 2,248 5.9 -16.9°
